Weather History for Midland, MI

Change the Weather History Date:

Thursday, July 4, 2013

  Actual Average (KMBS) Record (KMBS)
Temperature  
Mean Temperature 69 °F 71 °F  
Max Temperature 79 °F 82 °F 97 °F (2012)
Min Temperature 59 °F 60 °F 50 °F (2014)
Degree Days  
Heating Degree Days 0    
Month to date heating degree days  
Since 1 June heating degree days  
Since 1 July heating degree days  
Cooling Degree Days 4    
Month to date cooling degree days  
Year to date cooling degree days  
Since 1 June cooling degree days  
Growing Degree Days 19 (Base 50)    
Moisture  
Dew Point 62 °F    
Average Humidity 80    
Maximum Humidity 100    
Minimum Humidity 52    
Precipitation  
Precipitation 0.01 in 0.09 in 1.32 in (2001)
Month to date precipitation 0.36  
Year to date precipitation 14.99  
Snow  
Snow 0.00 in - - ()
Month to date snowfall  
Since 1 June snowfall  
Since 1 July snowfall  
Snow Depth -    
Sea Level Pressure  
Sea Level Pressure 30.09 in    
Wind  
Wind Speed 2 mph (SW)    
Max Wind Speed 12 mph    
Max Gust Speed 17 mph    
Visibility 7 miles    
Events Fog    
T = Trace of Precipitation, MM = Missing Value Source: NWS Daily Summary

Daily Weather History Graph

Daily Weather History Graph

Search for Another Location

Airport:

Trip Planner

Search our weather history database for the weather conditions in past years. The results will help you decide how hot, cold, wet, or windy it might be!

Date:

Astronomy

Jul. 04, 2013 Rise Set
Actual Time 6:01 AM EDT 9:21 PM EDT
Civil Twilight 5:25 AM EDT 9:57 PM EDT
Nautical Twilight 4:39 AM EDT 10:43 PM EDT
Astronomical Twilight 3:41 AM EDT 11:40 PM EDT
Moon 3:20 AM EDT (7/4) 6:23 PM EDT (7/4)
Length of Visible Light 16h 31m
Length of Day
15h 20m
Waning Crescent, 11% of the Moon is Illuminated
Jul 4
Waning Crescent
Jul 8
New
Jul 15
First Quarter
Jul 22
Full
Jul 29
Last Quarter

Hourly Weather History & Observations

Time (EDT) Temp. Dew Point Humidity Pressure Visibility Wind Dir Wind Speed Gust Speed Precip Events Conditions
12:11 AM 66.2 °F 65.3 °F 97% 30.08 in 7.0 mi Calm Calm - N/A   Scattered Clouds
12:32 AM 64.9 °F 64.0 °F 97% 30.08 in 4.0 mi Calm Calm - N/A   Scattered Clouds
12:51 AM 64.4 °F 64.2 °F 99% 30.08 in 4.0 mi Calm Calm - N/A   Clear
1:11 AM 63.5 °F 63.1 °F 99% 30.08 in 1.0 mi Calm Calm - N/A   Mist
1:32 AM 62.8 °F 62.8 °F 100% 30.08 in 1.5 mi Calm Calm - N/A   Mist
1:51 AM 62.1 °F 61.9 °F 99% 30.08 in 0.8 mi Calm Calm - N/A   Mist
2:11 AM 61.7 °F 61.5 °F 99% 30.07 in 0.5 mi Calm Calm - N/A Fog Fog
2:32 AM 61.3 °F 61.2 °F 99% 30.07 in 0.2 mi Calm Calm - N/A Fog Fog
2:51 AM 60.8 °F 60.6 °F 99% 30.07 in 0.2 mi Calm Calm - N/A Fog Fog
3:11 AM 61.0 °F 60.8 °F 99% 30.07 in 0.2 mi Calm Calm - N/A Fog Fog
3:31 AM 60.4 °F 60.3 °F 99% 30.06 in 0.2 mi Calm Calm - N/A Fog Fog
3:51 AM 60.8 °F 60.6 °F 99% 30.06 in 0.2 mi Calm Calm - N/A Fog Fog
4:11 AM 59.9 °F 59.9 °F 100% 30.07 in 0.5 mi Calm Calm - N/A Fog Fog
4:31 AM 60.4 °F 60.3 °F 99% 30.06 in 0.8 mi Calm Calm - N/A   Mist
4:51 AM 59.9 °F 59.9 °F 100% 30.07 in 0.2 mi Calm Calm - N/A Fog Fog
5:11 AM 60.8 °F 60.6 °F 99% 30.07 in 1.0 mi Calm Calm - N/A   Mostly Cloudy
5:31 AM 59.2 °F 59.2 °F 100% 30.07 in 1.8 mi Calm Calm - N/A   Mist
5:51 AM 59.4 °F 59.4 °F 100% 30.08 in 0.8 mi Calm Calm - N/A   Mist
6:11 AM 59.5 °F 59.5 °F 100% 30.08 in 1.8 mi Calm Calm - N/A   Mist
6:31 AM 59.9 °F 59.9 °F 100% 30.09 in 0.8 mi Calm Calm - N/A   Mist
6:51 AM 60.1 °F 60.1 °F 100% 30.09 in 1.2 mi Calm Calm - N/A   Mist
7:11 AM 60.4 °F 60.4 °F 100% 30.09 in 1.8 mi Calm Calm - N/A   Scattered Clouds
7:31 AM 61.7 °F 61.7 °F 100% 30.10 in 2.0 mi Calm Calm - N/A   Scattered Clouds
7:51 AM 64.2 °F 64.0 °F 99% 30.10 in 3.0 mi Calm Calm - N/A   Mostly Cloudy
8:12 AM 65.1 °F 64.9 °F 99% 30.11 in 4.0 mi Calm Calm - N/A   Overcast
8:31 AM 66.6 °F 66.2 °F 99% 30.12 in 5.0 mi SW 3.5 mph - N/A   Overcast
8:51 AM 66.9 °F 66.2 °F 98% 30.12 in 5.0 mi SW 3.5 mph - 0.01 in   Mostly Cloudy
9:12 AM 67.5 °F 66.0 °F 95% 30.12 in 5.0 mi SW 3.5 mph - N/A   Mostly Cloudy
9:31 AM 68.9 °F 66.7 °F 93% 30.11 in 7.0 mi WSW 5.8 mph - N/A   Mostly Cloudy
9:51 AM 70.2 °F 66.6 °F 88% 30.12 in 7.0 mi SW 8.1 mph - N/A   Mostly Cloudy
10:12 AM 70.7 °F 66.4 °F 86% 30.12 in 10.0 mi WSW 4.6 mph - N/A   Scattered Clouds
10:31 AM 71.1 °F 65.8 °F 84% 30.11 in 10.0 mi SW 6.9 mph - N/A   Clear
10:51 AM 72.5 °F 64.9 °F 77% 30.11 in 10.0 mi WSW 4.6 mph - N/A   Mostly Cloudy
11:12 AM 73.6 °F 63.1 °F 70% 30.11 in 10.0 mi West 5.8 mph - N/A   Mostly Cloudy
11:31 AM 75.0 °F 63.5 °F 67% 30.11 in 10.0 mi West 8.1 mph - N/A   Mostly Cloudy
11:51 AM 73.6 °F 62.2 °F 68% 30.11 in 10.0 mi WSW 4.6 mph - N/A   Scattered Clouds
12:12 PM 75.2 °F 61.9 °F 63% 30.12 in 10.0 mi SW 11.5 mph - N/A   Scattered Clouds
12:31 PM 75.4 °F 61.3 °F 62% 30.11 in 10.0 mi West 10.4 mph - N/A   Scattered Clouds
12:51 PM 75.6 °F 61.0 °F 60% 30.11 in 10.0 mi SSW 6.9 mph - N/A   Scattered Clouds
1:12 PM 75.6 °F 59.9 °F 58% 30.11 in 10.0 mi SW 8.1 mph - N/A   Scattered Clouds
1:31 PM 76.6 °F 61.2 °F 59% 30.11 in 10.0 mi SW 5.8 mph - N/A   Scattered Clouds
1:51 PM 77.7 °F 61.3 °F 57% 30.11 in 10.0 mi SW 4.6 mph - N/A   Scattered Clouds
2:12 PM 77.9 °F 61.7 °F 57% 30.10 in 10.0 mi Calm Calm - N/A   Mostly Cloudy
2:31 PM 78.3 °F 61.2 °F 56% 30.10 in 10.0 mi South 8.1 mph - N/A   Mostly Cloudy
2:52 PM 78.3 °F 60.8 °F 55% 30.10 in 10.0 mi South 4.6 mph - N/A   Mostly Cloudy
3:11 PM 79.2 °F 61.7 °F 55% 30.09 in 10.0 mi South 11.5 mph - N/A   Scattered Clouds
3:31 PM 79.9 °F 61.0 °F 52% 30.09 in 10.0 mi SSW 5.8 mph - N/A   Scattered Clouds
3:52 PM 78.3 °F 61.5 °F 56% 30.08 in 10.0 mi SSW 6.9 mph - N/A   Scattered Clouds
4:11 PM 78.1 °F 61.5 °F 57% 30.07 in 10.0 mi South 8.1 mph - N/A   Scattered Clouds
4:31 PM 79.0 °F 61.5 °F 55% 30.08 in 10.0 mi South 6.9 mph - N/A   Scattered Clouds
4:52 PM 79.0 °F 60.6 °F 53% 30.08 in 10.0 mi SSW 9.2 mph 17.3 mph N/A   Scattered Clouds
5:11 PM 78.8 °F 60.3 °F 53% 30.08 in 10.0 mi South 9.2 mph - N/A   Scattered Clouds
5:32 PM 78.6 °F 60.4 °F 54% 30.08 in 10.0 mi SW 9.2 mph 17.3 mph N/A   Mostly Cloudy
5:52 PM 78.8 °F 60.6 °F 54% 30.08 in 10.0 mi SSW 9.2 mph - N/A   Scattered Clouds
6:11 PM 78.8 °F 61.5 °F 55% 30.07 in 10.0 mi SSW 9.2 mph - N/A   Scattered Clouds
6:32 PM 78.3 °F 61.9 °F 57% 30.07 in 10.0 mi SW 5.8 mph - N/A   Scattered Clouds
6:52 PM 77.2 °F 60.6 °F 56% 30.07 in 10.0 mi SW 6.9 mph - N/A   Clear
7:11 PM 77.2 °F 61.9 °F 59% 30.07 in 10.0 mi SW 4.6 mph - N/A   Clear
7:32 PM 75.4 °F 61.7 °F 62% 30.07 in 10.0 mi SW 4.6 mph - N/A   Clear
7:52 PM 75.4 °F 61.3 °F 62% 30.06 in 10.0 mi SW 4.6 mph - N/A   Clear
8:11 PM 74.3 °F 61.7 °F 65% 30.07 in 10.0 mi SW 3.5 mph - N/A   Clear
8:32 PM 73.6 °F 61.2 °F 65% 30.07 in 10.0 mi SSW 4.6 mph - N/A   Clear
8:52 PM 72.5 °F 61.2 °F 67% 30.07 in 10.0 mi SSW 3.5 mph - N/A   Clear
9:18 PM 71.6 °F 60.8 °F 69% 30.07 in 10.0 mi Calm Calm - N/A   Clear
9:27 PM 71.1 °F 62.2 °F 74% 30.07 in 10.0 mi Calm Calm - N/A   Clear
9:31 PM 70.3 °F 63.3 °F 78% 30.07 in 10.0 mi Calm Calm - N/A   Clear
9:51 PM 68.4 °F 63.5 °F 84% 30.07 in 10.0 mi Calm Calm - N/A   Clear
10:12 PM 66.6 °F 63.9 °F 91% 30.08 in 10.0 mi Calm Calm - N/A   Clear
10:31 PM 66.7 °F 64.0 °F 91% 30.09 in 10.0 mi Calm Calm - N/A   Clear
10:51 PM 66.0 °F 63.7 °F 92% 30.09 in 10.0 mi Calm Calm - N/A   Clear
11:12 PM 65.3 °F 63.0 °F 92% 30.09 in 10.0 mi Calm Calm - N/A   Clear
11:31 PM 64.4 °F 62.8 °F 94% 30.09 in 10.0 mi Calm Calm - N/A   Clear
11:52 PM 63.7 °F 62.2 °F 95% 30.09 in 10.0 mi Calm Calm - N/A   Clear